K5NWZ Weather Reports


Display with metric or nautical units.
time (UTC)temp
F
wind
direction
speed
MPH
gust
MPH
rain 1hr
in
rain 24hr
in
rain mn
in
humidity
%
barometer
mb
20260906213732 88 99 4.0 7.0 0.00 0.00 0.00 38 1024.2
20260906213231 90 56 4.0 4.0 0.00 0.00 0.00 37 1024.5
20260906212729 89 123 2.0 3.0 0.00 0.00 0.00 38 1024.6
20260906212225 88 47 4.0 7.0 0.00 0.00 0.00 38 1024.6
20260906211724 88 63 4.0 7.0 0.00 0.00 0.00 39 1024.4
20260906211220 89 122 3.0 6.0 0.00 0.00 0.00 36 1024.9
20260906210715 90 132 2.0 6.0 0.00 0.00 0.00 37 1024.9
20260906210215 89 79 2.0 7.0 0.00 0.00 0.00 37 1024.8
20260906205710 88 227 3.0 3.0 0.00 0.00 0.00 38 1024.9
20260906205207 87 54 2.0 4.0 0.00 0.00 0.00 38 1024.8
20260906204706 87 144 3.0 6.0 0.00 0.00 0.00 40 1025.1
20260906204200 88 92 5.0 6.0 0.00 0.00 0.00 39 1025.1
20260906203700 89 11 7.0 8.0 0.00 0.00 0.00 40 1025.1
20260906203155 89 294 0.0 2.0 0.00 0.00 0.00 40 1025.3
20260906202652 88 165 3.0 4.0 0.00 0.00 0.00 41 1025.3
20260906202151 90 101 2.0 6.0 0.00 0.00 0.00 39 1025.2
20260906201646 88 316 0.0 1.0 0.00 0.00 0.00 41 1025.1
20260906201145 88 118 2.0 6.0 0.00 0.00 0.00 42 1025.1
20260906200642 86 302 0.0 3.0 0.00 0.00 0.00 42 1025.4
20260906200138 87 327 3.0 3.0 0.00 0.00 0.00 41 1025.5
20260906195633 87 341 1.0 1.0 0.00 0.00 0.00 40 1025.6
20260906195129 87 128 2.0 3.0 0.00 0.00 0.00 39 1025.6
20260906194625 86 18 1.0 3.0 0.00 0.00 0.00 41 1025.6
20260906194120 84 358 2.0 3.0 0.00 0.00 0.00 42 1025.8
20260906193615 87 121 2.0 3.0 0.00 0.00 0.00 40 1025.8
20260906193110 86 232 4.0 4.0 0.00 0.00 0.00 41 1026.1
20260906192606 86 333 1.0 1.0 0.00 0.00 0.00 42 1025.9
20260906192105 86 73 2.0 4.0 0.00 0.00 0.00 42 1025.8
20260906191600 87 15 1.0 2.0 0.00 0.00 0.00 41 1026.1
20260906191059 86 0 1.0 2.0 0.00 0.00 0.00 42 1026.1
20260906190558 85 291 0.0 0.0 0.00 0.00 0.00 42 1026.3
20260906190053 84 84 3.0 3.0 0.00 0.00 0.00 44 1026.3
20260906185552 85 79 2.0 3.0 0.00 0.00 0.00 43 1026.7
20260906185051 83 330 0.0 1.0 0.00 0.00 0.00 45 1026.8
20260906184546 82 14 1.0 4.0 0.00 0.00 0.00 48 1026.8
20260906184042 83 305 1.0 2.0 0.00 0.00 0.00 46 1027.0
20260906183538 84 342 1.0 3.0 0.00 0.00 0.00 47 1027.0
20260906183033 83 287 2.0 2.0 0.00 0.00 0.00 46 1027.0
20260906182528 82 54 2.0 4.0 0.00 0.00 0.00 48 1027.2
20260906182025 82 330 2.0 2.0 0.00 0.00 0.00 48 1027.5
20260906181520 81 339 2.0 3.0 0.00 0.00 0.00 48 1027.3
20260906181015 80 93 4.0 4.0 0.00 0.00 0.00 49 1027.5
20260906180510 80 335 3.0 3.0 0.00 0.00 0.00 51 1027.7
20260906180009 79 293 0.0 2.0 0.00 0.00 0.00 53 1028.0
20260906175503 81 19 4.0 4.0 0.00 0.00 0.00 51 1027.9
20260906175003 79 352 2.0 2.0 0.00 0.00 0.00 54 1027.9
20260906174501 79 109 4.0 4.0 0.00 0.00 0.00 55 1028.3
20260906173956 78 349 1.0 1.0 0.00 0.00 0.00 55 1028.1
20260906173451 77 1 3.0 4.0 0.00 0.00 0.00 56 1028.3
20260906172951 78 357 0.0 3.0 0.00 0.00 0.00 55 1028.3
20260906172447 78 30 2.0 3.0 0.00 0.00 0.00 56 1028.6
20260906171942 77 8 2.0 2.0 0.00 0.00 0.00 58 1028.4
20260906171437 78 323 0.0 1.0 0.00 0.00 0.00 56 1028.6
20260906170932 78 58 2.0 3.0 0.00 0.00 0.00 56 1028.9
20260906170429 77 92 2.0 3.0 0.00 0.00 0.00 58 1028.7
20260906165925 76 146 2.0 3.0 0.00 0.00 0.00 59 1029.0
20260906165424 76 320 1.0 3.0 0.00 0.00 0.00 61 1029.0
20260906164920 76 339 1.0 3.0 0.00 0.00 0.00 59 1029.1
20260906164418 77 322 0.0 2.0 0.00 0.00 0.00 58 1028.7
20260906163915 76 328 0.0 2.0 0.00 0.00 0.00 58 1028.7
20260906163411 73 6 2.0 3.0 0.00 0.00 0.00 62 1028.7
20260906162909 75 22 4.0 6.0 0.00 0.00 0.00 62 1028.8
20260906162407 74 330 0.0 0.0 0.00 0.00 0.00 63 1028.6
20260906161902 73 270 2.0 2.0 0.00 0.00 0.00 64 1028.7
20260906161402 72 4 4.0 4.0 0.00 0.00 0.00 66 1028.6
20260906160901 73 6 0.0 1.0 0.00 0.00 0.00 65 1028.6
20260906160355 73 25 1.0 3.0 0.00 0.00 0.00 65 1029.0
20260906155853 74 344 2.0 6.0 0.00 0.00 0.00 65 1028.9
20260906155347 72 337 2.0 4.0 0.00 0.00 0.00 66 1028.7
20260906154844 72 19 2.0 4.0 0.00 0.00 0.00 67 1028.9
20260906154337 72 41 1.0 3.0 0.00 0.00 0.00 67 1029.0
20260906153836 72 326 1.0 3.0 0.00 0.00 0.00 67 1029.0
20260906153336 72 329 2.0 3.0 0.00 0.00 0.00 67 1029.1
20260906152831 71 324 2.0 3.0 0.00 0.00 0.00 67 1029.1
20260906152326 71 113 3.0 6.0 0.00 0.00 0.00 68 1029.0
20260906151825 71 34 2.0 3.0 0.00 0.00 0.00 67 1029.1
20260906151321 69 90 2.0 4.0 0.00 0.00 0.00 70 1029.0
20260906150816 69 23 1.0 2.0 0.00 0.00 0.00 69 1029.4
20260906150312 68 1 1.0 2.0 0.00 0.00 0.00 73 1029.3
20260906145811 68 352 1.0 2.0 0.00 0.00 0.00 72 1029.3
20260906145309 67 52 4.0 4.0 0.00 0.00 0.00 73 1029.3
20260906144805 68 33 2.0 3.0 0.00 0.00 0.00 72 1029.4
20260906144300 68 336 2.0 6.0 0.00 0.00 0.00 71 1029.3
20260906143759 69 28 5.0 6.0 0.00 0.00 0.00 70 1029.3
20260906143256 68 332 0.0 3.0 0.00 0.00 0.00 70 1029.3
20260906142756 68 329 2.0 2.0 0.00 0.00 0.00 71 1029.3
20260906142251 68 4 2.0 4.0 0.00 0.00 0.00 72 1029.0
20260906141750 67 353 2.0 2.0 0.00 0.00 0.00 72 1029.1
20260906141245 67 324 2.0 3.0 0.00 0.00 0.00 72 1029.0
20260906140744 66 276 2.0 2.0 0.00 0.00 0.00 72 1029.0
20260906140239 66 315 0.0 1.0 0.00 0.00 0.00 73 1029.3
20260906135736 66 310 1.0 2.0 0.00 0.00 0.00 74 1029.4
20260906135232 65 319 0.0 2.0 0.00 0.00 0.00 78 1029.4
20260906134727 66 314 0.0 0.0 0.00 0.00 0.00 78 1029.1
20260906134223 65 305 0.0 0.0 0.00 0.00 0.00 79 1029.0
20260906133718 64 312 0.0 1.0 0.00 0.00 0.00 81 1029.0
20260906133214 63 316 0.0 1.0 0.00 0.00 0.00 82 1029.3
20260906132709 63 322 0.0 1.0 0.00 0.00 0.00 82 1028.9
20260906132204 63 307 0.0 1.0 0.00 0.00 0.00 82 1029.0
20260906131700 63 316 0.0 0.0 0.00 0.00 0.00 82 1029.1
20260906131154 64 317 0.0 2.0 0.00 0.00 0.00 82 1028.9
20260906130650 64 306 0.0 0.0 0.00 0.00 0.00 82 1029.0
20260906130145 63 316 0.0 1.0 0.00 0.00 0.00 83 1029.0
20260906125643 63 353 1.0 2.0 0.00 0.00 0.00 84 1028.8
20260906125141 62 354 1.0 2.0 0.00 0.00 0.00 84 1028.7
20260906124637 62 335 1.0 1.0 0.00 0.00 0.00 84 1029.1
20260906124132 62 322 1.0 1.0 0.00 0.00 0.00 85 1028.9
20260906123631 62 327 0.0 2.0 0.00 0.00 0.00 85 1028.9
20260906123127 62 310 0.0 0.0 0.00 0.00 0.00 85 1028.7
20260906122626 62 318 0.0 1.0 0.00 0.00 0.00 85 1028.6
20260906122122 62 324 1.0 2.0 0.00 0.00 0.00 85 1028.7
20260906121618 62 312 0.0 1.0 0.00 0.00 0.00 85 1028.8
20260906121114 62 302 0.0 1.0 0.00 0.00 0.00 86 1028.6
20260906120609 62 308 0.0 0.0 0.00 0.00 0.00 85 1028.8
20260906120107 62 321 0.0 1.0 0.00 0.00 0.00 85 1028.7
20260906115601 62 299 0.0 0.0 0.00 0.00 0.00 84 1028.7
20260906115056 62 307 0.0 0.0 0.00 0.00 0.00 84 1028.8
20260906114555 62 303 0.0 0.0 0.00 0.00 0.00 83 1028.7
20260906114051 63 306 0.0 0.0 0.00 0.00 0.00 82 1028.7
20260906113550 63 297 1.0 1.0 0.00 0.00 0.00 81 1028.7
20260906113045 63 297 2.0 2.0 0.00 0.00 0.00 80 1028.7
20260906112540 63 304 1.0 3.0 0.00 0.00 0.00 80 1028.8
20260906112036 63 319 0.0 1.0 0.00 0.00 0.00 78 1028.4
20260906111530 64 320 0.0 2.0 0.00 0.00 0.00 78 1028.6
20260906111026 64 307 1.0 2.0 0.00 0.00 0.00 77 1028.7
20260906110525 64 328 0.0 1.0 0.00 0.00 0.00 76 1028.6
20260906110025 64 302 4.0 4.0 0.00 0.00 0.00 76 1028.7
20260906105520 64 345 1.0 1.0 0.00 0.00 0.00 75 1028.4
20260906105016 64 313 1.0 1.0 0.00 0.00 0.00 75 1028.4
20260906104514 64 300 0.0 0.0 0.00 0.00 0.00 74 1028.6
20260906104009 64 301 2.0 2.0 0.00 0.00 0.00 74 1028.4
20260906103507 64 314 0.0 1.0 0.00 0.00 0.00 72 1028.4
20260906103003 64 302 0.0 1.0 0.00 0.00 0.00 72 1028.4
20260906102503 64 305 1.0 2.0 0.00 0.00 0.00 71 1028.6
20260906102002 64 321 0.0 0.0 0.00 0.00 0.00 70 1028.6
20260906101458 65 315 0.0 1.0 0.00 0.00 0.00 69 1028.4
20260906100953 65 323 0.0 0.0 0.00 0.00 0.00 68 1028.6
20260906100448 65 311 0.0 2.0 0.00 0.00 0.00 67 1028.8
20260906095947 65 304 0.0 0.0 0.00 0.00 0.00 67 1028.4
20260906095444 65 315 0.0 1.0 0.00 0.00 0.00 66 1028.4
20260906094938 65 345 0.0 1.0 0.00 0.00 0.00 66 1028.6
20260906094432 65 310 0.0 1.0 0.00 0.00 0.00 67 1028.2
20260906093928 65 353 0.0 1.0 0.00 0.00 0.00 66 1028.3
20260906093425 65 303 1.0 1.0 0.00 0.00 0.00 66 1028.1
20260906092924 65 299 0.0 1.0 0.00 0.00 0.00 66 1027.9
20260906092424 65 314 0.0 1.0 0.00 0.00 0.00 66 1027.9
20260906091920 65 348 0.0 0.0 0.00 0.00 0.00 65 1028.0
20260906091416 65 307 1.0 2.0 0.00 0.00 0.00 64 1027.7
20260906090912 65 307 0.0 1.0 0.00 0.00 0.00 64 1027.7
20260906090411 66 307 0.0 0.0 0.00 0.00 0.00 64 1027.5
20260906085906 66 309 1.0 2.0 0.00 0.00 0.00 63 1027.5
20260906085406 66 306 1.0 1.0 0.00 0.00 0.00 63 1027.7
20260906084905 66 312 0.0 1.0 0.00 0.00 0.00 62 1027.9
20260906084400 66 308 0.0 1.0 0.00 0.00 0.00 62 1027.6
20260906083854 66 317 0.0 1.0 0.00 0.00 0.00 61 1027.5
20260906083349 66 305 1.0 2.0 0.00 0.00 0.00 61 1028.0
20260906082849 67 320 1.0 1.0 0.00 0.00 0.00 61 1027.9
20260906082344 67 336 1.0 2.0 0.00 0.00 0.00 61 1027.6
20260906081840 67 312 0.0 1.0 0.00 0.00 0.00 61 1028.1
20260906081336 67 15 1.0 1.0 0.00 0.00 0.00 61 1027.9
20260906080832 67 306 0.0 1.0 0.00 0.00 0.00 60 1028.0
20260906080328 67 303 1.0 1.0 0.00 0.00 0.00 60 1028.0
20260906075827 67 303 0.0 0.0 0.00 0.00 0.00 60 1027.9
20260906075322 67 291 1.0 2.0 0.00 0.00 0.00 59 1028.0
20260906074818 68 294 1.0 3.0 0.00 0.00 0.00 59 1027.9
20260906074317 68 325 0.0 1.0 0.00 0.00 0.00 59 1028.1
20260906073816 68 302 0.0 0.0 0.00 0.00 0.00 58 1028.2
20260906073311 68 316 0.0 1.0 0.00 0.00 0.00 57 1027.9
20260906072808 68 319 0.0 2.0 0.00 0.00 0.00 56 1027.7
20260906072305 69 314 1.0 2.0 0.00 0.00 0.00 55 1027.6
20260906071759 69 319 0.0 1.0 0.00 0.00 0.00 56 1027.5
20260906071259 69 299 1.0 2.0 0.00 0.00 0.00 57 1027.7
20260906070755 69 11 2.0 3.0 0.00 0.00 0.00 57 1027.6
20260906070250 69 350 1.0 3.0 0.00 0.00 0.00 56 1027.7
20260906065749 69 331 0.0 3.0 0.00 0.00 0.00 56 1027.9
20260906065245 69 325 1.0 2.0 0.00 0.00 0.00 55 1027.7
20260906064741 69 288 1.0 2.0 0.00 0.00 0.00 54 1028.1
20260906064236 69 320 0.0 0.0 0.00 0.00 0.00 54 1028.2
20260906063731 69 328 0.0 0.0 0.00 0.00 0.00 53 1028.0
20260906063227 70 257 1.0 2.0 0.00 0.00 0.00 52 1028.2
20260906062722 70 317 0.0 0.0 0.00 0.00 0.00 52 1028.0
20260906062221 70 323 0.0 1.0 0.00 0.00 0.00 52 1028.0
20260906061717 71 321 0.0 0.0 0.00 0.00 0.00 51 1028.2
20260906061214 71 322 0.0 0.0 0.00 0.00 0.00 50 1028.2
20260906060709 71 21 0.0 0.0 0.00 0.00 0.00 50 1028.3
20260906060206 71 294 0.0 0.0 0.00 0.00 0.00 51 1028.2
20260906055701 71 293 1.0 1.0 0.00 0.00 0.00 51 1027.9
20260906055156 71 309 0.0 1.0 0.00 0.00 0.00 50 1027.6
20260906054651 71 310 2.0 2.0 0.00 0.00 0.00 50 1027.7
20260906054146 71 274 0.0 1.0 0.00 0.00 0.00 50 1027.5
20260906053643 72 305 2.0 3.0 0.00 0.00 0.00 49 1027.9
20260906053137 72 315 1.0 1.0 0.00 0.00 0.00 48 1027.9
20260906052633 73 316 0.0 1.0 0.00 0.00 0.00 48 1027.7
20260906052129 73 317 1.0 2.0 0.00 0.00 0.00 47 1027.9
20260906051625 73 342 0.0 4.0 0.00 0.00 0.00 48 1027.9
20260906051120 73 306 0.0 1.0 0.00 0.00 0.00 47 1027.9
20260906050616 73 0 1.0 1.0 0.00 0.00 0.00 49 1027.7
20260906050111 73 316 0.0 1.0 0.00 0.00 0.00 50 1027.3
20260906045609 73 91 1.0 1.0 0.00 0.00 0.00 50 1027.5
20260906045104 72 83 1.0 2.0 0.00 0.00 0.00 49 1027.5
20260906044600 72 344 1.0 1.0 0.00 0.00 0.00 48 1026.8
20260906044055 72 333 0.0 1.0 0.00 0.00 0.00 48 1026.9
20260906043551 72 310 0.0 1.0 0.00 0.00 0.00 48 1026.7
20260906043047 72 294 0.0 1.0 0.00 0.00 0.00 49 1026.7
20260906042546 73 307 0.0 2.0 0.00 0.00 0.00 48 1026.8
20260906042040 73 106 2.0 3.0 0.00 0.00 0.00 48 1027.0
20260906041537 73 57 1.0 2.0 0.00 0.00 0.00 47 1026.7
20260906041031 73 56 0.0 1.0 0.00 0.00 0.00 47 1026.5
20260906040526 73 35 1.0 3.0 0.00 0.00 0.00 46 1026.6
20260906040022 73 295 0.0 0.0 0.00 0.00 0.00 46 1026.3
20260906035511 73 305 0.0 0.0 0.00 0.00 0.00 45 1026.6
20260906035007 74 310 0.0 1.0 0.00 0.00 0.00 44 1026.6
20260906034506 73 11 1.0 1.0 0.00 0.00 0.00 45 1026.6
20260906033955 74 294 0.0 0.0 0.00 0.00 0.00 45 1026.5
20260906033450 74 285 0.0 0.0 0.00 0.00 0.00 44 1026.6
20260906032946 75 297 0.0 1.0 0.00 0.00 0.00 44 1026.6
20260906032442 76 296 0.0 0.0 0.00 0.00 0.00 42 1026.7
20260906031936 76 315 0.0 0.0 0.00 0.00 0.00 42 1026.5
20260906031432 77 296 0.0 0.0 0.00 0.00 0.00 41 1026.3
20260906030927 77 330 1.0 2.0 0.00 0.00 0.00 41 1026.2
20260906030422 78 325 1.0 2.0 0.00 0.00 0.00 40 1026.2
20260906025917 78 320 0.0 2.0 0.00 0.00 0.00 39 1026.2
20260906025411 79 330 1.0 1.0 0.00 0.00 0.00 37 1026.2
20260906024910 79 267 1.0 1.0 0.00 0.00 0.00 37 1026.0
20260906024409 80 17 4.0 6.0 0.00 0.00 0.00 35 1026.0
20260906023905 80 17 3.0 6.0 0.00 0.00 0.00 34 1025.9
20260906023401 80 332 1.0 2.0 0.00 0.00 0.00 35 1025.9
20260906022901 82 340 3.0 6.0 0.00 0.00 0.00 33 1026.0
20260906022355 82 311 0.0 0.0 0.00 0.00 0.00 32 1025.8
20260906021851 82 309 1.0 1.0 0.00 0.00 0.00 32 1025.5
20260906021350 82 298 0.0 2.0 0.00 0.00 0.00 32 1025.5
20260906020845 82 288 0.0 3.0 0.00 0.00 0.00 32 1025.4
20260906020345 82 295 1.0 3.0 0.00 0.00 0.00 32 1025.2
20260906015840 82 275 3.0 6.0 0.00 0.00 0.00 32 1025.4
20260906015339 82 268 1.0 6.0 0.00 0.00 0.00 32 1025.5
20260906014833 82 281 2.0 2.0 0.00 0.00 0.00 32 1025.5
20260906014328 82 279 1.0 2.0 0.00 0.00 0.00 32 1025.2
20260906013824 83 272 4.0 7.0 0.00 0.00 0.00 31 1025.2
20260906013319 83 285 1.0 3.0 0.00 0.00 0.00 32 1025.1
20260906012814 83 294 6.0 9.0 0.00 0.00 0.00 31 1025.2
20260906012309 82 227 3.0 7.0 0.00 0.00 0.00 32 1025.4
20260906011804 82 299 0.0 1.0 0.00 0.00 0.00 33 1025.4
20260906011303 83 307 2.0 4.0 0.00 0.00 0.00 32 1025.3
20260906010759 83 306 2.0 4.0 0.00 0.00 0.00 32 1025.4
20260906010256 83 297 3.0 9.0 0.00 0.00 0.00 31 1025.5
20260906005751 84 298 1.0 4.0 0.00 0.00 0.00 31 1025.3
20260906005250 84 299 1.0 6.0 0.00 0.00 0.00 32 1025.3
20260906004749 84 323 1.0 3.0 0.00 0.00 0.00 32 1025.6
20260906004244 84 310 2.0 2.0 0.00 0.00 0.00 31 1025.5
20260906003739 85 276 1.0 6.0 0.00 0.00 0.00 31 1025.5
20260906003235 85 297 2.0 6.0 0.00 0.00 0.00 30 1025.5
20260906002735 86 312 2.0 3.0 0.00 0.00 0.00 30 1025.5
20260906002235 86 267 1.0 3.0 0.00 0.00 0.00 29 1025.4
20260906001731 86 299 1.0 4.0 0.00 0.00 0.00 29 1025.3
20260906001225 86 285 3.0 6.0 0.00 0.00 0.00 29 1025.2
20260906000721 87 277 4.0 6.0 0.00 0.00 0.00 29 1025.3
20260906000216 87 299 0.0 1.0 0.00 0.00 0.00 29 1025.3
20260905235715 88 291 4.0 7.0 0.00 0.00 0.00 28 1025.3
20260905235210 89 304 1.0 4.0 0.00 0.00 0.00 27 1025.3
20260905234706 90 207 4.0 8.0 0.00 0.00 0.00 26 1025.4
20260905234201 90 277 0.0 1.0 0.00 0.00 0.00 25 1025.1
20260905233656 91 235 1.0 1.0 0.00 0.00 0.00 26 1025.2
20260905233155 91 275 1.0 3.0 0.00 0.00 0.00 25 1024.9
20260905232650 91 297 0.0 1.0 0.00 0.00 0.00 24 1024.8
20260905232145 92 288 0.0 2.0 0.00 0.00 0.00 24 1024.9
20260905231640 91 275 0.0 1.0 0.00 0.00 0.00 24 1024.9
20260905231137 92 281 1.0 2.0 0.00 0.00 0.00 25 1024.6
20260905230627 92 289 0.0 0.0 0.00 0.00 0.00 24 1024.7
20260905230124 92 265 0.0 1.0 0.00 0.00 0.00 24 1024.7
20260905225618 93 299 0.0 1.0 0.00 0.00 0.00 24 1024.7
20260905225114 93 314 0.0 0.0 0.00 0.00 0.00 24 1024.7
20260905224608 92 296 0.0 1.0 0.00 0.00 0.00 24 1024.6
20260905224107 93 171 2.0 2.0 0.00 0.00 0.00 26 1024.7
20260905223605 95 251 0.0 1.0 0.00 0.00 0.00 22 1024.6
20260905223101 96 322 0.0 1.0 0.00 0.00 0.00 22 1024.6
20260905222601 93 298 0.0 2.0 0.00 0.00 0.00 22 1024.6
20260905222056 93 106 3.0 6.0 0.00 0.00 0.00 23 1024.6
20260905221552 94 213 0.0 3.0 0.00 0.00 0.00 22 1024.5
20260905221048 93 108 3.0 6.0 0.00 0.00 0.00 22 1024.5
20260905220543 93 33 2.0 3.0 0.00 0.00 0.00 23 1024.6
20260905220039 94 94 5.0 7.0 0.00 0.00 0.00 22 1024.7
20260905215538 93 336 1.0 7.0 0.00 0.00 0.00 23 1024.8
20260905215035 92 99 2.0 7.0 0.00 0.00 0.00 23 1025.1
20260905214531 93 87 5.0 8.0 0.00 0.00 0.00 23 1024.7
20260905214026 93 354 2.0 3.0 0.00 0.00 0.00 23 1024.8